This is the latest recevied weather packets stored in our database for station/object WI0K. If no packets are shown the sender has not sent any weather packets the latest 10 day(s).
| Time | Temp. | Humidity | Pressure | Rain* | Wind** | Luminosity | Snow |
|---|---|---|---|---|---|---|---|
| 1788279245 | 20.56° C | 62% | 1021.1 hPa | 0 mm | - | 260 W/m² | - |
| 1788278944 | 20° C | 66% | 1021.1 hPa | 0 mm | - | 349 W/m² | - |
| 1788278644 | 20° C | 64% | 1021.1 hPa | 0 mm | - | 339 W/m² | - |
| 1788278343 | 20° C | 64% | 1021.1 hPa | 0 mm | - | 389 W/m² | - |
| 1788278042 | 19.44° C | 66% | 1021.1 hPa | 0 mm | - | 381 W/m² | - |
| 1788277741 | 19.44° C | 66% | 1021.2 hPa | 0 mm | - | 318 W/m² | - |
| 1788277441 | 19.44° C | 68% | 1021.2 hPa | 0 mm | - | 322 W/m² | - |
| 1788277140 | 18.89° C | 67% | 1021.2 hPa | 0 mm | - | 272 W/m² | - |
| 1788276839 | 18.89° C | 69% | 1021.1 hPa | 0 mm | - | 247 W/m² | - |
| 1788276539 | 18.89° C | 70% | 1021 hPa | 0 mm | - | 238 W/m² | - |
| 1788276238 | 18.33° C | 70% | 1021 hPa | 0 mm | - | 225 W/m² | - |
| 1788275937 | 18.33° C | 72% | 1021 hPa | 0 mm | - | 208 W/m² | - |
| 1788275637 | 18.33° C | 71% | 1021 hPa | 0 mm | - | 184 W/m² | - |
| 1788275335 | 18.33° C | 71% | 1020.9 hPa | 0 mm | - | 163 W/m² | - |
| 1788275034 | 17.78° C | 72% | 1021 hPa | 0 mm | - | 166 W/m² | - |
| 1788274733 | 17.78° C | 72% | 1021 hPa | 0 mm | - | 157 W/m² | - |
| 1788274432 | 17.78° C | 72% | 1021 hPa | 0 mm | - | 137 W/m² | - |
| 1788274132 | 17.78° C | 72% | 1021 hPa | 0 mm | - | 117 W/m² | - |
| 1788273831 | 17.78° C | 75% | 1021 hPa | 0 mm | - | 96 W/m² | - |
| 1788273531 | 17.78° C | 74% | 1020.9 hPa | 0 mm | - | 96 W/m² | - |
| 1788273230 | 17.22° C | 74% | 1020.9 hPa | 0 mm | - | 97 W/m² | - |
| 1788272929 | 17.22° C | 75% | 1020.9 hPa | 0 mm | - | 90 W/m² | - |
| 1788272628 | 17.22° C | 77% | 1020.9 hPa | 0 mm | - | 83 W/m² | - |
| 1788272328 | 17.22° C | 76% | 1020.9 hPa | 0 mm | - | 75 W/m² | - |
| 1788272027 | 17.22° C | 77% | 1020.9 hPa | 0 mm | - | 71 W/m² | - |
* Rain latest hour (hover to see other rain measurements)
** Current wind speed in m/s (hover to see current wind gust speed)